Location: *
(43.0833°N, 13.0500°E)
Time: 03:30:50
(UTC+00:00)

Cosmos 1680 Rocket - Pass Details

Date: 15 November 2019
Orbit: 759 x 782 km, 74.1° (Epoch: 14 December)

Event Time Altitude Azimuth Distance (km) Brightness Sun altitude
Rises 16:59:56 0° 179° (S) 3,203 6.9 -13.9°
Reaches altitude 10° 17:02:23 10° 173° (S) 2,284 6.0 -14.3°
Maximum altitude 17:07:15 42° 103° (ESE) 1,074 3.8 -15.2°
Enters shadow 17:10:55 17° 39° (NE) 1,871 5.1 -15.8°
